GKO72DH EDJA-EDDH

Flight info

Callsign GKO72DH
Flight time 1h 13m
Altitude 38000
Route LUPOL5B LUPOL Z79 SUDEN Y710 ETAGO Z3 LBU N851 OSBIT P605 NOLGO NOLGO6A
Aircraft B738/M-SDE2E3FGHIRWXY/LB1

Departure

Time 2026-04-21 19:48
Airport Memmingen Allgau Airport (EDJA)

Arrival

Time 2026-04-21 21:01
Airport Hamburg Helmut Schmidt Airport (EDDH)
Time Latitude Longitude Altitude Speed Heading
2026-04-21 19:07 47.98872 10.23246 2072 ft 0 kts 51°
2026-04-21 19:42 47.98873 10.23248 2072 ft 1 kts 52°
2026-04-21 19:42 47.98870 10.23269 2072 ft 4 kts 140°
2026-04-21 19:42 47.98844 10.23331 2072 ft 12 kts 80°
2026-04-21 19:43 47.98869 10.23454 2072 ft 12 kts 70°
2026-04-21 19:43 47.98902 10.23588 2072 ft 15 kts 70°
2026-04-21 19:43 47.98894 10.23709 2072 ft 11 kts 133°
2026-04-21 19:43 47.98820 10.23761 2072 ft 14 kts 203°
2026-04-21 19:44 47.98751 10.23617 2072 ft 22 kts 238°
2026-04-21 19:44 47.98667 10.23410 2072 ft 23 kts 239°
2026-04-21 19:44 47.98593 10.23222 2072 ft 19 kts 239°
2026-04-21 19:44 47.98517 10.23031 2072 ft 24 kts 239°
2026-04-21 19:45 47.98424 10.22799 2072 ft 26 kts 239°
2026-04-21 19:45 47.98344 10.22629 2072 ft 15 kts 231°
2026-04-21 19:45 47.98367 10.22596 2072 ft 7 kts 70°
2026-04-21 19:45 47.98368 10.22648 2072 ft 4 kts 63°
2026-04-21 19:46 47.98371 10.22656 2072 ft 0 kts 62°
2026-04-21 19:47 47.98378 10.22676 2072 ft 14 kts 61°
2026-04-21 19:47 47.98533 10.23070 2072 ft 74 kts 59°
2026-04-21 19:47 47.98887 10.23964 2072 ft 126 kts 58°
2026-04-21 19:48 47.99403 10.25297 2097 ft 168 kts 61°
2026-04-21 19:48 47.99985 10.26880 2566 ft 178 kts 61°
2026-04-21 19:48 48.00593 10.28481 3352 ft 174 kts 58°
2026-04-21 19:48 48.01230 10.29993 4140 ft 172 kts 58°
2026-04-21 19:49 48.01886 10.31587 4570 ft 191 kts 58°
2026-04-21 19:49 48.02614 10.33357 4907 ft 209 kts 59°
2026-04-21 19:49 48.03416 10.35242 5331 ft 223 kts 51°
2026-04-21 19:49 48.04710 10.36431 6162 ft 223 kts 15°
2026-04-21 19:50 48.05774 10.36503 6657 ft 231 kts 359°
2026-04-21 19:50 48.07851 10.35517 7528 ft 245 kts 336°
2026-04-21 19:50 48.09290 10.34120 8270 ft 250 kts 324°
2026-04-21 19:50 48.10481 10.32179 8995 ft 257 kts 308°
2026-04-21 19:51 48.11380 10.29780 9517 ft 274 kts 297°
2026-04-21 19:51 48.12144 10.27084 10054 ft 287 kts 293°
2026-04-21 19:51 48.12869 10.24268 10810 ft 292 kts 292°
2026-04-21 19:51 48.13605 10.21412 11353 ft 306 kts 292°
2026-04-21 19:52 48.14403 10.18366 11782 ft 322 kts 292°
2026-04-21 19:52 48.15247 10.15196 12380 ft 332 kts 292°
2026-04-21 19:52 48.16116 10.11965 13149 ft 336 kts 292°
2026-04-21 19:52 48.16998 10.08708 13951 ft 339 kts 292°
2026-04-21 19:53 48.17889 10.05416 14785 ft 342 kts 293°
2026-04-21 19:53 48.18794 10.02110 15599 ft 345 kts 292°
2026-04-21 19:53 48.19706 9.98769 16393 ft 348 kts 293°
2026-04-21 19:53 48.20628 9.95398 17169 ft 351 kts 293°
2026-04-21 19:54 48.21570 9.92066 17923 ft 353 kts 296°
2026-04-21 19:54 48.22733 9.88809 18659 ft 356 kts 301°
2026-04-21 19:54 48.24039 9.85636 19353 ft 359 kts 303°
2026-04-21 19:54 48.25381 9.82461 20031 ft 363 kts 303°
2026-04-21 19:55 48.26735 9.79238 20681 ft 367 kts 303°
2026-04-21 19:55 48.28089 9.75982 21340 ft 369 kts 303°
2026-04-21 19:55 48.29448 9.72701 21989 ft 372 kts 302°
2026-04-21 19:55 48.30817 9.69384 22602 ft 375 kts 303°
2026-04-21 19:56 48.32196 9.66041 23205 ft 377 kts 303°
2026-04-21 19:56 48.33567 9.62715 23754 ft 381 kts 302°
2026-04-21 19:56 48.34961 9.59323 24326 ft 383 kts 303°
2026-04-21 19:56 48.36359 9.55894 24892 ft 386 kts 302°
2026-04-21 19:57 48.37834 9.52510 25392 ft 388 kts 310°
2026-04-21 19:57 48.39842 9.49819 25926 ft 389 kts 327°
2026-04-21 19:57 48.42310 9.48139 26437 ft 393 kts 340°
2026-04-21 19:57 48.44854 9.46634 26909 ft 395 kts 336°
2026-04-21 19:58 48.47500 9.45472 27356 ft 400 kts 351°
2026-04-21 19:58 48.50268 9.45441 27819 ft 406 kts
2026-04-21 19:58 48.53086 9.45952 28236 ft 409 kts
2026-04-21 19:58 48.55928 9.46181 28650 ft 410 kts 358°
2026-04-21 19:59 48.58789 9.46175 29060 ft 412 kts 356°
2026-04-21 19:59 48.61662 9.46130 29436 ft 414 kts 356°
2026-04-21 19:59 48.64551 9.46090 29817 ft 417 kts 356°
2026-04-21 19:59 48.67461 9.46055 30192 ft 419 kts 356°
2026-04-21 20:00 48.70360 9.45795 30534 ft 419 kts 350°
2026-04-21 20:00 48.73185 9.44963 30834 ft 419 kts 343°
2026-04-21 20:00 48.75968 9.43631 31190 ft 419 kts 339°
2026-04-21 20:00 48.78702 9.42133 31677 ft 417 kts 337°
2026-04-21 20:01 48.81380 9.40473 32164 ft 415 kts 335°
2026-04-21 20:01 48.84030 9.38744 32563 ft 414 kts 335°
2026-04-21 20:01 48.86673 9.37022 32940 ft 414 kts 335°
2026-04-21 20:01 48.89384 9.35519 33318 ft 416 kts 341°
2026-04-21 20:02 48.92202 9.34527 33707 ft 417 kts 348°
2026-04-21 20:02 48.95077 9.33915 34095 ft 417 kts 351°
2026-04-21 20:02 48.97933 9.33535 34433 ft 419 kts 353°
2026-04-21 20:02 49.00849 9.33271 34716 ft 420 kts 354°
2026-04-21 20:03 49.03770 9.33028 35048 ft 420 kts 354°
2026-04-21 20:03 49.06692 9.32791 35350 ft 421 kts 354°
2026-04-21 20:03 49.09621 9.32553 35654 ft 422 kts 354°
2026-04-21 20:03 49.12554 9.32317 35961 ft 422 kts 354°
2026-04-21 20:04 49.15495 9.32080 36235 ft 423 kts 355°
2026-04-21 20:04 49.18435 9.31846 36539 ft 424 kts 355°
2026-04-21 20:04 49.21345 9.31614 36824 ft 424 kts 355°
2026-04-21 20:04 49.24291 9.31381 37095 ft 425 kts 355°
2026-04-21 20:05 49.27237 9.31147 37375 ft 425 kts 355°
2026-04-21 20:05 49.30197 9.30914 37648 ft 425 kts 355°
2026-04-21 20:05 49.33151 9.30682 37908 ft 426 kts 355°
2026-04-21 20:05 49.36118 9.30676 38178 ft 427 kts
2026-04-21 20:06 49.39095 9.31032 38221 ft 431 kts
2026-04-21 20:06 49.45033 9.31918 38235 ft 431 kts
2026-04-21 20:07 49.50984 9.32806 38246 ft 429 kts
2026-04-21 20:07 49.56932 9.33697 38255 ft 430 kts
2026-04-21 20:08 49.62871 9.34588 38259 ft 429 kts
2026-04-21 20:08 49.68816 9.35483 38257 ft 429 kts
2026-04-21 20:09 49.74616 9.37558 38258 ft 433 kts 22°
2026-04-21 20:09 49.79655 9.42648 38260 ft 438 kts 36°
2026-04-21 20:10 49.84369 9.48646 38261 ft 438 kts 37°
2026-04-21 20:10 49.89046 9.54713 38261 ft 438 kts 37°
2026-04-21 20:11 49.93700 9.60798 38262 ft 438 kts 38°
2026-04-21 20:11 49.98317 9.66861 38263 ft 437 kts 38°
2026-04-21 20:12 50.02960 9.72971 38264 ft 437 kts 37°
2026-04-21 20:12 50.05461 9.75606 38259 ft 432 kts 24°
2026-04-21 20:12 50.08279 9.77123 38267 ft 429 kts
2026-04-21 20:13 50.14220 9.77469 38278 ft 428 kts 357°
2026-04-21 20:13 50.20158 9.76947 38282 ft 427 kts 355°
2026-04-21 20:14 50.26046 9.76374 38286 ft 427 kts 355°
2026-04-21 20:14 50.31979 9.75784 38289 ft 428 kts 355°
2026-04-21 20:15 50.37921 9.75194 38292 ft 428 kts 355°
2026-04-21 20:15 50.43862 9.74597 38295 ft 427 kts 355°
2026-04-21 20:16 50.49756 9.74000 38298 ft 427 kts 356°
2026-04-21 20:16 50.55691 9.73395 38301 ft 427 kts 356°
2026-04-21 20:17 50.61627 9.72789 38303 ft 428 kts 356°
2026-04-21 20:17 50.67572 9.72177 38305 ft 428 kts 356°
2026-04-21 20:18 50.72506 9.71658 38307 ft 428 kts 356°
2026-04-21 20:18 50.79410 9.70928 38310 ft 428 kts 356°
2026-04-21 20:19 50.85362 9.70296 38311 ft 428 kts 356°
2026-04-21 20:19 50.91313 9.69887 38313 ft 428 kts 359°
2026-04-21 20:20 50.97282 9.69765 38314 ft 429 kts 359°
2026-04-21 20:20 51.03244 9.69609 38318 ft 429 kts 359°
2026-04-21 20:21 51.09219 9.69436 38318 ft 429 kts 359°
2026-04-21 20:21 51.15143 9.69259 38319 ft 429 kts 359°
2026-04-21 20:22 51.21114 9.69179 38319 ft 429 kts
2026-04-21 20:22 51.30016 9.70573 38318 ft 429 kts
2026-04-21 20:23 51.35913 9.71581 38319 ft 429 kts
2026-04-21 20:23 51.41843 9.72558 38321 ft 429 kts
2026-04-21 20:24 51.47790 9.73537 38321 ft 429 kts
2026-04-21 20:24 51.53715 9.74675 38322 ft 429 kts
2026-04-21 20:25 51.59645 9.75815 38323 ft 429 kts
2026-04-21 20:25 51.65562 9.76944 38325 ft 428 kts
2026-04-21 20:26 51.71434 9.78059 37832 ft 425 kts
2026-04-21 20:26 51.74365 9.78617 37231 ft 424 kts
2026-04-21 20:26 51.77299 9.79177 36651 ft 424 kts
2026-04-21 20:27 51.80215 9.79735 36187 ft 420 kts
2026-04-21 20:27 51.83104 9.80288 35724 ft 417 kts
2026-04-21 20:27 51.85973 9.80839 35267 ft 414 kts
2026-04-21 20:27 51.88819 9.81427 34847 ft 408 kts 12°
2026-04-21 20:28 51.91586 9.82197 34585 ft 399 kts 13°
2026-04-21 20:28 51.94267 9.83006 34337 ft 396 kts 14°
2026-04-21 20:28 51.96976 9.83829 34087 ft 397 kts 14°
2026-04-21 20:28 51.99701 9.84660 33838 ft 399 kts 14°
2026-04-21 20:29 52.02419 9.85489 33544 ft 395 kts 15°
2026-04-21 20:29 52.05098 9.86307 33137 ft 390 kts 15°
2026-04-21 20:29 52.07756 9.87120 32729 ft 387 kts 15°
2026-04-21 20:29 52.10394 9.87927 32323 ft 384 kts 15°
2026-04-21 20:30 52.13013 9.88730 31920 ft 381 kts 15°
2026-04-21 20:30 52.15606 9.89525 31522 ft 378 kts 15°
2026-04-21 20:30 52.18180 9.90316 31128 ft 375 kts 16°
2026-04-21 20:30 52.20710 9.91093 30743 ft 373 kts 16°
2026-04-21 20:31 52.23246 9.91870 30359 ft 370 kts 16°
2026-04-21 20:31 52.25771 9.92633 29982 ft 367 kts 16°
2026-04-21 20:31 52.28271 9.93394 29600 ft 365 kts 16°
2026-04-21 20:31 52.30790 9.93894 29211 ft 369 kts
2026-04-21 20:32 52.33328 9.94044 28830 ft 361 kts 14°
2026-04-21 20:32 52.35752 9.94881 28453 ft 353 kts 20°
2026-04-21 20:32 52.38118 9.95925 28086 ft 350 kts 21°
2026-04-21 20:32 52.40455 9.96996 27701 ft 349 kts 20°
2026-04-21 20:33 52.42842 9.97772 27326 ft 348 kts 18°
2026-04-21 20:33 52.45187 9.98677 26959 ft 346 kts 18°
2026-04-21 20:33 52.47545 9.99414 26590 ft 345 kts 16°
2026-04-21 20:33 52.49863 10.00103 26224 ft 342 kts 16°
2026-04-21 20:34 52.52205 10.00818 25766 ft 343 kts 17°
2026-04-21 20:34 52.54544 10.01536 25234 ft 341 kts 17°
2026-04-21 20:34 52.56852 10.02340 24659 ft 337 kts 19°
2026-04-21 20:34 52.59107 10.03314 24079 ft 334 kts 21°
2026-04-21 20:35 52.61332 10.04351 23539 ft 331 kts 21°
2026-04-21 20:35 52.63534 10.05371 23153 ft 328 kts 21°
2026-04-21 20:35 52.65723 10.06376 22800 ft 326 kts 21°
2026-04-21 20:35 52.67902 10.07369 22448 ft 323 kts 21°
2026-04-21 20:36 52.70061 10.08348 22099 ft 321 kts 21°
2026-04-21 20:36 52.72211 10.09320 21748 ft 320 kts 20°
2026-04-21 20:36 52.74321 10.10272 21404 ft 318 kts 20°
2026-04-21 20:36 52.76456 10.11203 21055 ft 317 kts 18°
2026-04-21 20:37 52.78640 10.11778 20710 ft 319 kts 11°
2026-04-21 20:37 52.80855 10.11991 20367 ft 319 kts
2026-04-21 20:37 52.83074 10.12063 20024 ft 318 kts
2026-04-21 20:37 52.85283 10.12112 19685 ft 316 kts
2026-04-21 20:38 52.87474 10.12166 19347 ft 314 kts
2026-04-21 20:38 52.89657 10.12223 19011 ft 313 kts
2026-04-21 20:38 52.91826 10.12282 18678 ft 311 kts
2026-04-21 20:38 52.93986 10.12344 18346 ft 310 kts
2026-04-21 20:39 52.96109 10.12406 18021 ft 308 kts
2026-04-21 20:39 52.98243 10.12470 17694 ft 306 kts
2026-04-21 20:39 53.00371 10.12536 17369 ft 305 kts
2026-04-21 20:39 53.02482 10.12601 17046 ft 303 kts
2026-04-21 20:40 53.04585 10.12667 16724 ft 302 kts
2026-04-21 20:40 53.06683 10.12733 16404 ft 300 kts
2026-04-21 20:40 53.08763 10.12798 16087 ft 299 kts
2026-04-21 20:40 53.10836 10.12863 15772 ft 297 kts
2026-04-21 20:41 53.12874 10.12928 15462 ft 296 kts
2026-04-21 20:41 53.14927 10.12994 15149 ft 295 kts
2026-04-21 20:41 53.16973 10.13059 14795 ft 295 kts
2026-04-21 20:41 53.19026 10.13126 14432 ft 295 kts
2026-04-21 20:42 53.21074 10.13193 14114 ft 294 kts
2026-04-21 20:42 53.23117 10.13259 13796 ft 292 kts
2026-04-21 20:42 53.25145 10.13323 13483 ft 291 kts
2026-04-21 20:42 53.27167 10.13390 13178 ft 290 kts
2026-04-21 20:43 53.29111 10.13455 12883 ft 289 kts
2026-04-21 20:43 53.31114 10.13519 12581 ft 287 kts
2026-04-21 20:43 53.33081 10.13584 12273 ft 286 kts
2026-04-21 20:43 53.35069 10.13649 11984 ft 285 kts
2026-04-21 20:44 53.37043 10.13712 11631 ft 282 kts
2026-04-21 20:44 53.38986 10.13147 11138 ft 289 kts 342°
2026-04-21 20:44 53.40701 10.11388 10851 ft 292 kts 326°
2026-04-21 20:44 53.42227 10.09104 10646 ft 295 kts 320°
2026-04-21 20:45 53.43638 10.06638 10438 ft 288 kts 316°
2026-04-21 20:45 53.44946 10.04178 10247 ft 278 kts 316°
2026-04-21 20:45 53.46193 10.01835 10065 ft 269 kts 316°
2026-04-21 20:45 53.47429 9.99529 9890 ft 264 kts 316°
2026-04-21 20:46 53.48544 9.97083 9706 ft 267 kts 300°
2026-04-21 20:46 53.48999 9.94076 9540 ft 269 kts 274°
2026-04-21 20:46 53.48675 9.90993 9290 ft 270 kts 249°
2026-04-21 20:46 53.47750 9.88281 9110 ft 267 kts 232°
2026-04-21 20:47 53.46470 9.86062 8936 ft 264 kts 218°
2026-04-21 20:47 53.45071 9.84073 8760 ft 264 kts 220°
2026-04-21 20:47 53.43782 9.81882 8581 ft 264 kts 225°
2026-04-21 20:47 53.42576 9.79553 8402 ft 264 kts 229°
2026-04-21 20:48 53.41426 9.77165 8226 ft 263 kts 229°
2026-04-21 20:48 53.40277 9.74845 8053 ft 262 kts 229°
2026-04-21 20:48 53.39112 9.72509 7876 ft 261 kts 228°
2026-04-21 20:48 53.37950 9.70182 7708 ft 260 kts 228°
2026-04-21 20:49 53.36789 9.67855 7531 ft 260 kts 228°
2026-04-21 20:49 53.35630 9.65546 7357 ft 259 kts 228°
2026-04-21 20:49 53.34469 9.63237 7184 ft 258 kts 228°
2026-04-21 20:49 53.33314 9.60936 7013 ft 258 kts 228°
2026-04-21 20:50 53.32151 9.58624 6838 ft 262 kts 228°
2026-04-21 20:50 53.30985 9.56280 6661 ft 261 kts 232°
2026-04-21 20:50 53.30273 9.53568 6471 ft 260 kts 258°
2026-04-21 20:50 53.30330 9.50604 6292 ft 254 kts 285°
2026-04-21 20:51 53.31110 9.48003 6027 ft 249 kts 311°
2026-04-21 20:51 53.32334 9.46024 5863 ft 243 kts 325°
2026-04-21 20:51 53.33820 9.44886 5681 ft 232 kts 353°
2026-04-21 20:51 53.35363 9.45215 5551 ft 221 kts 28°
2026-04-21 20:52 53.36568 9.46707 5350 ft 213 kts 43°
2026-04-21 20:52 53.37637 9.48379 5152 ft 206 kts 46°
2026-04-21 20:52 53.38615 9.50073 5007 ft 198 kts 49°
2026-04-21 20:52 53.39520 9.51748 4871 ft 190 kts 50°
2026-04-21 20:53 53.40365 9.53358 4742 ft 183 kts 51°
2026-04-21 20:53 53.41188 9.54952 4622 ft 179 kts 51°
2026-04-21 20:53 53.41993 9.56529 4508 ft 178 kts 51°
2026-04-21 20:53 53.42783 9.58089 4408 ft 173 kts 51°
2026-04-21 20:54 53.43555 9.59623 4285 ft 172 kts 52°
2026-04-21 20:54 53.44316 9.61139 4181 ft 165 kts 52°
2026-04-21 20:54 53.45040 9.62585 4060 ft 159 kts 52°
2026-04-21 20:54 53.45738 9.63981 3967 ft 155 kts 52°
2026-04-21 20:55 53.46433 9.65374 3864 ft 156 kts 52°
2026-04-21 20:55 53.47128 9.66766 3754 ft 155 kts 52°
2026-04-21 20:55 53.47810 9.68135 3658 ft 155 kts 52°
2026-04-21 20:55 53.48508 9.69537 3556 ft 155 kts 52°
2026-04-21 20:56 53.49190 9.70906 3451 ft 155 kts 52°
2026-04-21 20:56 53.49879 9.72291 3355 ft 155 kts 52°
2026-04-21 20:56 53.50571 9.73679 3250 ft 155 kts 52°
2026-04-21 20:56 53.51257 9.75061 3186 ft 153 kts 52°
2026-04-21 20:57 53.51954 9.76463 3091 ft 160 kts 52°
2026-04-21 20:57 53.52675 9.77916 2874 ft 161 kts 52°
2026-04-21 20:57 53.53382 9.79339 2652 ft 154 kts 52°
2026-04-21 20:57 53.54044 9.80671 2459 ft 142 kts 52°
2026-04-21 20:58 53.54657 9.81907 2268 ft 134 kts 52°
2026-04-21 20:58 53.55234 9.83070 2092 ft 130 kts 52°
2026-04-21 20:58 53.55811 9.84233 1925 ft 128 kts 52°
2026-04-21 20:58 53.56386 9.85394 1764 ft 131 kts 51°
2026-04-21 20:59 53.56967 9.86565 1589 ft 131 kts 51°
2026-04-21 20:59 53.57563 9.87768 1413 ft 138 kts 50°
2026-04-21 20:59 53.58203 9.89059 1247 ft 149 kts 50°
2026-04-21 20:59 53.58865 9.90396 1023 ft 147 kts 49°
2026-04-21 21:00 53.59507 9.91692 818 ft 141 kts 49°
2026-04-21 21:00 53.60126 9.92942 636 ft 137 kts 49°
2026-04-21 21:00 53.60721 9.94146 463 ft 135 kts 49°
2026-04-21 21:00 53.61315 9.95345 273 ft 133 kts 49°
2026-04-21 21:01 53.61922 9.96518 88 ft 132 kts 57°
2026-04-21 21:01 53.62454 9.97639 61 ft 98 kts 51°
2026-04-21 21:01 53.62703 9.98201 61 ft 40 kts 39°
2026-04-21 21:01 53.62874 9.98496 61 ft 33 kts 50°
2026-04-21 21:02 53.63009 9.98777 61 ft 29 kts 50°
2026-04-21 21:02 53.63136 9.99030 61 ft 28 kts 50°
2026-04-21 21:02 53.63261 9.99294 61 ft 29 kts 63°
2026-04-21 21:02 53.63283 9.99566 61 ft 20 kts 100°
2026-04-21 21:03 53.63277 9.99755 61 ft 15 kts 82°
2026-04-21 21:03 53.63343 9.99920 61 ft 19 kts 49°
2026-04-21 21:03 53.63421 10.00088 61 ft 18 kts 68°
2026-04-21 21:03 53.63397 10.00212 61 ft 11 kts 162°
2026-04-21 21:04 53.63285 10.00238 61 ft 18 kts 174°
2026-04-21 21:04 53.63162 10.00246 61 ft 17 kts 180°
2026-04-21 21:04 53.63071 10.00262 61 ft 9 kts 171°
2026-04-21 21:04 53.63053 10.00301 61 ft 3 kts 99°
2026-04-21 21:05 53.63053 10.00366 61 ft 5 kts 86°
2026-04-21 21:05 53.63054 10.00393 61 ft 1 kts 86°